This is the latest recevied weather packets stored in our database for station/object KA3RQR. If no packets are shown the sender has not sent any weather packets the latest 10 day(s).
| Time | Temp. | Humidity | Pressure | Rain* | Wind** | Luminosity | Snow |
|---|---|---|---|---|---|---|---|
| 1778100657 | 20.56° C | 83% | 1008 hPa | 0 mm | - | 295 W/m² | - |
| 1778100355 | 20.56° C | 82% | 1007.9 hPa | 0 mm | - | 219 W/m² | - |
| 1778100052 | 20.56° C | 82% | 1008 hPa | 0 mm | - | 171 W/m² | - |
| 1778099750 | 20.56° C | 82% | 1008.1 hPa | 0 mm | - | 216 W/m² | - |
| 1778099447 | 20.56° C | 83% | 1007.8 hPa | 0 mm | - | 207 W/m² | - |
| 1778099144 | 20.56° C | 81% | 1008 hPa | 0 mm | - | 260 W/m² | - |
| 1778098840 | 21.11° C | 82% | 1007.9 hPa | 0 mm | - | 228 W/m² | - |
| 1778098538 | 20.56° C | 83% | 1007.8 hPa | 0 mm | - | 307 W/m² | - |
| 1778098235 | 20° C | 84% | 1007.9 hPa | 0 mm | - | 355 W/m² | - |
| 1778097931 | 20° C | 84% | 1008.2 hPa | 0 mm | - | 142 W/m² | - |
| 1778097628 | 20° C | 83% | 1008 hPa | 0 mm | - | 147 W/m² | - |
| 1778097324 | 20° C | 83% | 1008.1 hPa | 0 mm | - | 165 W/m² | - |
| 1778097021 | 20° C | 84% | 1008 hPa | 0 mm | - | 165 W/m² | - |
| 1778096719 | 20° C | 84% | 1008 hPa | 0 mm | - | 148 W/m² | - |
| 1778096415 | 20° C | 84% | 1008.4 hPa | 0 mm | - | 174 W/m² | - |
| 1778096112 | 20° C | 84% | 1008 hPa | 0 mm | - | 213 W/m² | - |
| 1778095809 | 20° C | 83% | 1008 hPa | 0 mm | - | 236 W/m² | - |
| 1778095506 | 20° C | 83% | 1008 hPa | 0 mm | - | 246 W/m² | - |
| 1778095202 | 19.44° C | 84% | 1008.4 hPa | 0 mm | - | 238 W/m² | - |
| 1778094899 | 19.44° C | 84% | 1008.5 hPa | 0 mm | - | 183 W/m² | - |
| 1778094595 | 20° C | 84% | 1008.3 hPa | 0 mm | - | 196 W/m² | - |
| 1778094292 | 20° C | 84% | 1008.5 hPa | 0 mm | - | 171 W/m² | - |
| 1778093988 | 20° C | 85% | 1008.5 hPa | 0 mm | - | 224 W/m² | - |
| 1778093686 | 19.44° C | 86% | 1008.4 hPa | 0 mm | - | 228 W/m² | - |
| 1778093383 | 19.44° C | 85% | 1008.7 hPa | 0 mm | - | 189 W/m² | - |
* Rain latest hour (hover to see other rain measurements)
** Current wind speed in m/s (hover to see current wind gust speed)